EW8261 Weather Reports


time (UTC)temp
C
wind
direction
speed
KPH
gust
KPH
rain 1hr
cm
rain 24hr
cm
rain mn
cm
humidity
%
barometer
mb
20260510120049 17 285 1.6 6.4 0.05 0.05 0.05 100 1012.9
20260510114554 17 264 0.0 1.6 0.03 0.03 0.03 100 1012.9
20260510113047 17 278 0.0 1.6 0.00 0.00 0.00 100 1012.8
20260510111547 17 335 0.0 0.0 0.00 0.00 0.00 99 1012.8
20260510110046 16 36 0.0 0.0 0.00 0.00 0.00 99 1012.5
20260510104545 16 36 0.0 0.0 0.00 0.00 0.00 98 1012.6
20260510103049 16 36 0.0 0.0 0.00 0.00 0.00 98 1012.6
20260510101544 16 36 0.0 0.0 0.00 0.00 0.00 98 1012.5
20260510100108 16 36 0.0 0.0 0.00 0.00 0.00 98 1012.8
20260510094542 16 36 0.0 0.0 0.00 0.00 0.00 97 1012.7
20260510093048 16 36 0.0 0.0 0.00 0.00 0.00 98 1012.5
20260510091541 16 36 0.0 0.0 0.00 0.00 0.00 98 1012.7
20260510090038 16 36 0.0 1.6 0.00 0.00 0.00 99 1012.4
20260510084537 16 36 0.0 0.0 0.00 0.00 0.00 98 1012.3
20260510083043 16 36 0.0 0.0 0.00 0.00 0.00 98 1011.8
20260510081536 16 36 0.0 0.0 0.00 0.00 0.00 98 1011.5
20260510080031 16 36 0.0 0.0 0.00 0.00 0.00 98 1011.6
20260510074531 16 36 0.0 0.0 0.00 0.00 0.00 98 1011.3
20260510073029 16 36 0.0 0.0 0.00 0.00 0.00 97 1011.4
20260510071536 17 36 0.0 0.0 0.00 0.00 0.00 98 1011.3
20260510070027 16 36 0.0 0.0 0.00 0.00 0.00 97 1011.5
20260510064525 17 36 0.0 0.0 0.00 0.00 0.00 97 1011.7
20260510063026 17 36 0.0 0.0 0.00 0.00 0.00 96 1011.4
20260510061537 17 36 0.0 0.0 0.00 0.00 0.00 97 1011.6
20260510060021 17 36 0.0 0.0 0.00 0.00 0.00 96 1011.8
20260510054518 17 36 0.0 0.0 0.00 0.00 0.00 97 1011.6
20260510053016 17 36 0.0 0.0 0.00 0.00 0.00 96 1011.6
20260510051514 18 36 0.0 0.0 0.00 0.00 0.00 95 1011.3
20260510050015 18 36 0.0 0.0 0.00 0.00 0.00 95 1011.0
20260510044510 18 36 0.0 0.0 0.00 0.00 0.00 94 1010.9
20260510043014 18 36 0.0 0.0 0.00 0.00 0.00 93 1010.8
20260510041508 19 36 0.0 0.0 0.00 0.00 0.00 92 1010.8
20260510040007 19 36 0.0 0.0 0.00 0.00 0.00 91 1010.8
20260510034507 20 305 0.0 0.0 0.00 0.00 0.00 90 1010.7
20260510033005 20 298 0.0 1.6 0.00 0.00 0.00 90 1010.8
20260510031511 20 53 0.0 0.0 0.00 0.00 0.00 89 1010.6
20260510030004 20 53 0.0 1.6 0.00 0.00 0.00 89 1010.3
20260510024501 20 44 0.0 0.0 0.00 0.00 0.00 87 1010.1
20260510023002 20 47 0.0 1.6 0.00 0.00 0.00 87 1009.8
20260510021502 21 7 0.0 0.0 0.00 0.00 0.00 86 1009.7
20260510020101 21 317 0.0 0.0 0.00 0.00 0.00 86 1009.5
20260510014600 21 317 0.0 0.0 0.00 0.00 0.00 85 1009.3
20260510013100 22 317 0.0 0.0 0.00 0.00 0.00 85 1009.1
20260510011600 22 316 0.0 0.0 0.00 0.00 0.00 84 1009.0
20260510010100 23 316 0.0 0.0 0.00 0.00 0.00 82 1008.8
20260510004601 23 303 0.0 0.0 0.00 0.00 0.00 80 1008.8
20260510003120 24 302 0.0 1.6 0.00 0.00 0.00 78 1008.6
20260510001557 24 55 0.0 0.0 0.00 0.00 0.00 77 1008.4
20260509234604 25 88 0.0 0.0 0.00 0.00 0.00 75 1008.1
20260509233054 25 88 0.0 0.0 0.00 0.00 0.00 76 1008.0
20260509231556 26 88 0.0 0.0 0.00 0.00 0.00 71 1008.0
20260509230059 26 88 0.0 1.6 0.00 0.00 0.00 68 1007.9
20260509224552 26 88 0.0 0.0 0.00 0.00 0.00 66 1007.8
20260509223052 27 31 0.0 1.6 0.00 0.00 0.00 63 1007.7
20260509221551 27 79 0.0 1.6 0.00 0.00 0.00 63 1007.7
20260509220049 28 113 0.0 1.6 0.00 0.00 0.00 57 1007.6
20260509214551 30 113 0.0 1.6 0.00 0.00 0.00 52 1007.6
20260509213047 30 10 0.0 3.2 0.00 0.00 0.00 52 1007.6
20260509211545 30 31 0.0 4.8 0.00 0.00 0.00 53 1007.8
20260509210049 30 304 0.0 8.0 0.00 0.00 0.00 52 1007.7
20260509204542 30 205 0.0 8.0 0.00 0.00 0.00 50 1008.0
20260509203040 30 107 0.0 8.0 0.00 0.00 0.00 50 1008.1
20260509201539 30 68 0.0 14.5 0.00 0.00 0.00 54 1008.3
20260509200035 29 256 1.6 8.0 0.00 0.00 0.00 55 1008.6
20260509194537 29 245 0.0 11.3 0.00 0.00 0.00 55 1008.7
20260509193032 28 92 0.0 9.7 0.00 0.00 0.00 56 1008.8
20260509191532 27 23 0.0 1.6 0.00 0.00 0.00 57 1008.9
20260509190031 28 111 0.0 1.6 0.00 0.00 0.00 58 1009.0
20260509184529 29 354 0.0 3.2 0.00 0.00 0.00 55 1008.9
20260509183028 28 111 0.0 8.0 0.00 0.00 0.00 56 1009.2
20260509181540 27 359 0.0 8.0 0.00 0.00 0.00 60 1009.2
20260509180025 27 115 0.0 1.6 0.00 0.00 0.00 61 1009.2
20260509174524 28 102 0.0 4.8 0.00 0.00 0.00 59 1009.4
20260509173025 27 119 0.0 4.8 0.00 0.00 0.00 60 1009.7
20260509171520 27 106 0.0 6.4 0.00 0.00 0.00 61 1009.6
20260509170019 27 124 0.0 4.8 0.00 0.00 0.00 62 1009.6
20260509164516 26 6 0.0 6.4 0.00 0.00 0.00 62 1009.7
20260509163013 26 257 0.0 1.6 0.00 0.00 0.00 67 1009.5
20260509161511 25 44 0.0 4.8 0.00 0.00 0.00 68 1009.6
20260509160009 25 296 0.0 3.2 0.00 0.00 0.00 69 1009.6
20260509154507 25 23 0.0 3.2 0.00 0.00 0.00 68 1009.7
20260509153005 25 60 0.0 1.6 0.00 0.00 0.00 69 1009.6
20260509151503 25 37 0.0 4.8 0.00 0.00 0.00 70 1009.6
20260509150100 23 34 0.0 1.6 0.00 0.00 0.00 73 1009.8
20260509144557 23 287 0.0 1.6 0.00 0.00 0.00 74 1009.9
20260509143057 22 322 0.0 1.6 0.00 0.00 0.00 77 1009.9
20260509141606 22 217 0.0 0.0 0.00 0.00 0.00 77 1010.0
20260509140057 21 252 0.0 1.6 0.00 0.00 0.00 80 1010.2
20260509134556 20 311 0.0 0.0 0.00 0.00 0.00 82 1010.3
20260509133044 19 265 0.0 0.0 0.00 0.00 0.00 87 1010.4
20260509131540 17 265 0.0 0.0 0.00 0.00 0.00 94 1010.1
20260509130036 15 265 0.0 0.0 0.00 0.00 0.00 98 1010.1
20260509124535 14 265 0.0 0.0 0.00 0.00 0.00 99 1009.9
20260509123034 13 262 0.0 0.0 0.00 0.00 0.00 100 1009.8
20260509121537 12 261 0.0 0.0 0.00 0.00 0.00 99 1009.6